Regional Weather Roundup
Issued by NWS

Home | Current Version | Previous Version | Graphics & Text | Print | Product List | Glossary On
Versions: 1 2 3 4 5 6 7 8 9 10 11 12 13 14 15 16 17 18 19 20 21 22 23 24 25 26 27 28 29 30 31 32 33 34 35 36 37 38 39 40 41 42 43 44 45 46 47 48 49 50
832
ASUS44 KMEG 011610
RWRTN
TENNESSEE HOURLY STATE WEATHER ROUNDUP
NATIONAL WEATHER SERVICE MEMPHIS TN
1100 AM CDT SAT OCT 01 2016

TNZ002-004-019-021-049-052-054-088>092-011700-
WEST TENNESSEE

CITY           SKY/WX    TMP DP  RH WIND       PRES   REMARKS
MEMPHIS INTL   MOSUNNY   74  58  57 NW6       30.11S
NWS MEMPHIS      N/A     71 N/A N/A MISG        N/A
JACKSON        MOSUNNY  N/A N/A N/A W7        30.10F
DYERSBURG      CLOUDY   N/A N/A N/A MISG        N/A
UNION CITY     CLOUDY    70  61  73 W10       30.07S
PARIS          CLOUDY    64  57  77 VRB7      30.09S
HUNTINGDON     MOSUNNY   70  59  68 VRB6G17   30.07F
LEXINGTON      PTSUNNY   70  57  64 VRB6      30.10S
$$

TNZ008-025-027-028-033-062-065-066-011700-
NORTH MIDDLE TENNESSEE

CITY           SKY/WX    TMP DP  RH WIND       PRES   REMARKS
NASHVILLE      PTSUNNY   67  57  70 W10       30.10S
PORTLAND       CLOUDY    64  59  82 SW9       30.08S
CLARKSVILLE    CLOUDY    64  58  80 W9        30.08S
SMYRNA         PTSUNNY   72  58  61 W10       30.10S
COOKEVILLE     MOSUNNY   70  57  64 S9        30.09F
GALLATIN       CLOUDY    66  59  77 SW7G14    30.12S
CROSSVILLE     MOSUNNY   65  52  62 VRB7      30.13S
$$

TNZ061-075-076-078-094-096-097-011700-
SOUTH MIDDLE TENNESSEE

CITY           SKY/WX    TMP DP  RH WIND       PRES   REMARKS
FAYETTEVILLE   MOSUNNY   70  54  56 SW13      30.12S
TULLAHOMA      MOSUNNY   70  54  56 SW7       30.13S
WINCHESTER     MOSUNNY   70  54  56 VRB3      30.12S
MCMINNVILLE    SUNNY     70  55  60 SW13      30.11S
COLUMBIA       MOSUNNY   68  66  94 VRB5      30.10R
SHELBYVILLE    SUNNY     73  57  56 SW7       30.11F
$$

TNZ017-018-042-046-047-011700-
NORTHEAST TENNESSEE

CITY           SKY/WX    TMP DP  RH WIND       PRES   REMARKS
TRI CITIES     MOSUNNY   66  52  60 CALM      30.12F
ELIZABETHTON   SUNNY     68  48  49 CALM      30.12F
$$

TNZ012-013-036-069-073-074-011700-
CENTRAL EAST TENNESSEE

CITY           SKY/WX    TMP DP  RH WIND       PRES   REMARKS
KNOXVILLE      PTSUNNY   66  50  56 SW5       30.12S
OAK RIDGE      CLOUDY    63  51  65 CALM      30.14S
DOWNTOWN KNOXV CLOUDY    68  52  56 W6        30.13S
GATLINBURG     SUNNY     70  46  43 VRB3      30.11S
MORRISTOWN     SUNNY     68  48  49 NW5       30.12S
JACKSBORO      CLOUDY    61  54  77 CALM      30.16S
$$

TNZ083-085-099-011700-
SOUTHEAST TENNESSEE

CITY           SKY/WX    TMP DP  RH WIND       PRES   REMARKS
CHATTANOOGA    MOSUNNY   70  50  49 CALM      30.12F
$$

SKY/WX REPORTED AS FAIR MEANS FEW OR NO CLOUDS BELOW
12 THOUSAND FEET.





USA.gov is the U.S. government's official web portal to all federal, state and local government web resources and services.